STARLINK-2683 (48462 NORAD) Tracking and Keplerian Element Data

This shows tracking and keplerian element data for the satellite.

Feedback or suggestion? Click here.




ElementValue
Catalog48462
NameSTARLINK-2683
Epoch Orbit361
Epoch Day214.91667824
Epoch Year2021
RAAN172.4993
Inclination53.0412
Eccentricity0.0001892
Argument of Perigee77.4162
Mean Anonmoly266.5881
Mean Motion15.06394621
Decay Rate1.526E-05
L11 48462U 21040AL 21214.91667824 .00001526 00000-0 12138-3 0 9996
L22 48462 53.0412 172.4993 0001892 77.4162 266.5881 15.06394621 3616

Live tracking and technical data element details for STARLINK-2683 (NORAD 48462). STARLINK-2683 can be tracked NOW for your location showing map with azimuth and elevation plus other details from your city location.

Track the satellite on the map from your city or location and see movement details for azimuth, elevation, latitude, longitude, range, height, and movement on the map or in text.







IsCatalogInMostPopularTable: catalog: 48462, numindb: 26
Update: records affected: 1



GetName: 48462 STARLINK-2683

Hit Count: updated at: Wed, 04 Aug 2021 00:24:38 GMT